ONEWEB-0039 (45146 NORAD) Tracking and Keplerian Element Data

This shows tracking and keplerian element data for the satellite.

Feedback or suggestion? Click here.




ElementValue
Catalog45146
NameONEWEB-0039
Epoch Orbit3889
Epoch Day298.25001157
Epoch Year2020
RAAN86.2559
Inclination87.9531
Eccentricity0.0018516
Argument of Perigee116.245
Mean Anonmoly28.4236
Mean Motion13.28351793
Decay Rate0.00039921
L11 45146U 20008R 20298.25001157 .00039921 00000-0 87178-1 0 9998
L22 45146 87.9531 86.2559 0018516 116.2450 28.4236 13.28351793 38895

Live tracking and technical data element details for ONEWEB-0039 (NORAD 45146). ONEWEB-0039 can be tracked NOW for your location showing map with azimuth and elevation plus other details from your city location.

Track the satellite on the map from your city or location and see movement details for azimuth, elevation, latitude, longitude, range, height, and movement on the map or in text.







IsCatalogInMostPopularTable: catalog: 45146, numindb: 55
Update: records affected: 1



GetName: 45146 ONEWEB-0039

Hit Count: updated at: Sat, 24 Oct 2020 23:47:47 GMT